Location: Monrovia
(34.7865°N, 86.7139°W)
Time: 21:58:07
(UTC+00:00)

DMSP B5D2-2 - Pass Details

Date: 14 July 2020
Orbit: 789 x 807 km, 98.3° (Epoch: 08 August)

Event Time Altitude Azimuth Distance (km) Brightness Sun altitude
Rises 01:54:13 0° 9° (N) 3,292 7.7 -10.1°
Reaches altitude 10° 01:56:33 10° 7° (N) 2,358 6.9 -10.5°
Maximum altitude 02:01:43 68° 286° (WNW) 847 4.5 -11.4°
Drops below altitude 10° 02:06:51 10° 203° (SSW) 2,344 6.4 -12.2°
Sets 02:09:10 0° 201° (SSW) 3,270 7.1 -12.6°
